User: anonymous   Login
Location: Caltech
(34.1382°N, 118.1253°W)
Time: 12:40:38
(UTC-07:00)
Language:

SO-50 - Orbit

View from above orbital plane
View from above orbital plane
View from above satellite
View from above satellite

Ground track
Ground track

The orbit data is extracted from the following two-line orbital elements,

1 27607U 02058C   16149.23409199  .00000102  00000-0  35368-4 0  9997
2 27607  64.5551 221.8069 0070172 221.2575 138.3213 14.75156425722326
Epoch (UTC): 28 May 2016 05:37:05
Eccentricity: 0.0070172
inclination: 64.5551°
perigee height: 595 km
apogee height: 694 km
right ascension of ascending node: 221.8069°
argument of perigee: 221.2575°
revolutions per day: 14.75156425
mean anomaly at epoch: 138.3213°
orbit number at epoch: 72232

The dashed part of the orbit path shows where the satellite is in the earth's shadow,  

DLR